Location: Calvin Observatory
(42.9309°N, 85.5886°W)
Time: 18:38:15
(UTC-04:00)

ISS - Visible Passes

Search period start: 27 April 2017 00:00
Search period end: 07 May 2017 00:00
Orbit: 401 x 409 km, 51.6° (Epoch: 28 April)

Date Brightness Start Highest point End Pass type
(mag) Time Alt. Az. Time Alt. Az. Time Alt. Az.
03 May -1.1 05:54:45 10° SSE 05:56:08 12° SE 05:57:30 10° ESE visible
05 May -2.2 05:45:11 10° SSW 05:48:02 27° SE 05:50:53 10° ENE visible
06 May -1.4 04:54:34 12° SSE 04:56:03 15° SE 04:58:03 10° E visible
